Weather History for KPIR - September, 2012

Change the Weather History Date:

Monday, September 17, 2012

  Actual Average Record
Temperature  
Mean Temperature 52 °F 62 °F  
Max Temperature 65 °F 76 °F 104 °F (2000)
Min Temperature 38 °F 49 °F 34 °F (1981)
Degree Days  
Heating Degree Days 13 5  
Month to date heating degree days 27 54  
Since 1 July heating degree days 33 74  
Cooling Degree Days 0 2  
Month to date cooling degree days 90 71  
Year to date cooling degree days 1111 848  
Growing Degree Days 4 (Base 50)    
Moisture  
Dew Point 34 °F    
Average Humidity 55    
Maximum Humidity 86    
Minimum Humidity 23    
Precipitation  
Precipitation T in 0.05 in 1.94 in (1969)
Month to date precipitation T 1.02  
Year to date precipitation 10.11 16.20  
Sea Level Pressure  
Sea Level Pressure 30.12 in    
Wind  
Wind Speed 9 mph (NNW)    
Max Wind Speed 24 mph    
Max Gust Speed 32 mph    
Visibility 10 miles    
Events      
T = Trace of Precipitation, MM = Missing Value Source: NWS Daily Summary

Daily Weather History Graph

Daily Weather History Graph

Search for Another Location

Airport or City:

Trip Planner

Search our weather history database for the weather conditions in past years. The results will help you decide how hot, cold, wet, or windy it might be!

Date:

Astronomy

Sep. 17, 2012 Rise Set
Actual Time 7:23 AM CDT 7:46 PM CDT
Civil Twilight 6:53 AM CDT 8:16 PM CDT
Nautical Twilight 6:19 AM CDT 8:50 PM CDT
Astronomical Twilight 5:44 AM CDT 9:25 PM CDT
Moon 9:21 AM CDT (9/17) 8:22 PM CDT (9/17)
Length of Visible Light 13h 22m
Length of Day
12h 23m
Waxing Crescent, 3% of the Moon is Illuminated
Sep 17
Waxing Crescent
Sep 22
First Quarter
Sep 29
Full
Oct 8
Last Quarter
Oct 15
New

Hourly Weather History & Observations

Time (CDT) Temp. Windchill Dew Point Humidity Pressure Visibility Wind Dir Wind Speed Gust Speed Precip Events Conditions
12:53 AM 48.0 °F - 42.1 °F 80% 30.11 in 10.0 mi North 10.4 mph - N/A   Clear
1:53 AM 48.0 °F - 42.1 °F 80% 30.13 in 10.0 mi North 5.8 mph - N/A   Clear
2:53 AM 46.0 °F 43.1 °F 41.0 °F 83% 30.14 in 10.0 mi NNW 5.8 mph - N/A   Clear
3:53 AM 48.0 °F - 42.1 °F 80% 30.14 in 10.0 mi NNW 8.1 mph - N/A   Partly Cloudy
4:53 AM 46.9 °F - 42.1 °F 83% 30.14 in 10.0 mi North 8.1 mph - N/A   Clear
5:53 AM 48.0 °F - 42.1 °F 80% 30.15 in 10.0 mi NNW 8.1 mph - N/A   Overcast
6:53 AM 46.9 °F - 42.1 °F 83% 30.14 in 10.0 mi NNW 4.6 mph - 0.00 in   Overcast
7:53 AM 44.1 °F 39.5 °F 39.9 °F 85% 30.15 in 10.0 mi NW 8.1 mph - N/A   Clear
8:53 AM 51.1 °F - 44.1 °F 77% 30.15 in 10.0 mi WNW 4.6 mph - N/A   Clear
9:53 AM 55.9 °F - 42.1 °F 60% 30.14 in 10.0 mi WNW 9.2 mph - N/A   Clear
10:53 AM 60.1 °F - 39.9 °F 47% 30.14 in 10.0 mi WNW 11.5 mph - N/A   Clear
11:53 AM 61.0 °F - 37.9 °F 42% 30.13 in 10.0 mi WNW 11.5 mph 20.7 mph N/A   Clear
12:53 PM 63.0 °F - 39.0 °F 41% 30.12 in 10.0 mi NW 17.3 mph 24.2 mph N/A   Clear
1:53 PM 63.0 °F - 36.0 °F 37% 30.11 in 10.0 mi NNW 20.7 mph 27.6 mph N/A   Partly Cloudy
2:53 PM 64.0 °F - 30.0 °F 28% 30.10 in 10.0 mi NW 16.1 mph 27.6 mph N/A   Clear
3:53 PM 63.0 °F - 27.0 °F 26% 30.09 in 10.0 mi NW 12.7 mph 24.2 mph N/A   Clear
4:53 PM 64.0 °F - 26.1 °F 24% 30.09 in 10.0 mi NNW 20.7 mph 26.5 mph N/A   Clear
5:53 PM 63.0 °F - 25.0 °F 24% 30.10 in 10.0 mi NW 17.3 mph - N/A   Clear
6:53 PM 61.0 °F - 24.1 °F 24% 30.11 in 10.0 mi NNW 11.5 mph - N/A   Clear
7:53 PM 54.0 °F - 23.0 °F 30% 30.12 in 10.0 mi NNW 5.8 mph - N/A   Clear
8:53 PM 50.0 °F - 23.0 °F 35% 30.10 in 10.0 mi NNW 5.8 mph - N/A   Clear
9:53 PM 48.9 °F - 24.1 °F 38% 30.11 in 10.0 mi NNW 3.5 mph - N/A   Clear
10:53 PM 44.1 °F 42.5 °F 23.0 °F 43% 30.11 in 10.0 mi NNE 3.5 mph - N/A   Clear
11:53 PM 48.0 °F - 26.1 °F 42% 30.11 in 10.0 mi South 4.6 mph - N/A   Clear